Regional Weather Roundup
Issued by NWS

Home | Current Version | Previous Version | Graphics & Text | Print | Product List | Glossary On
Versions: 1 2 3 4 5 6 7 8 9 10 11 12 13 14 15 16 17 18 19 20 21 22 23 24 25 26 27 28 29 30 31 32 33 34 35 36 37 38 39 40 41 42 43 44 45 46 47 48 49 50
039
ASUS43 KDTX 192201
RWRMI
MICHIGAN HOURLY REGIONAL WEATHER ROUNDUP
NATIONAL WEATHER SERVICE DETROIT/PONTIAC MI
500 PM EST SUN FEB 19 2017

NOTE: "FAIR" INDICATES FEW OR NO CLOUDS BELOW 12,000 FEET WITH NO
SIGNIFICANT WEATHER AND/OR OBSTRUCTION TO VISIBILITY.

MIZ047>049-052>055-059>063-066>070-074>076-081>083-192300-
SOUTHEAST LOWER MICHIGAN

CITY           SKY/WX    TMP DP  RH WIND       PRES   REMARKS
ADRIAN         SUNNY     63  28  26 NW9       30.05R
ALMA           MOSUNNY   59  25  27 NW12G17   30.05R
ANN ARBOR      SUNNY     63  26  24 W10       30.03R
BAD AXE        SUNNY     52  33  47 NW5       30.06R
CARO           SUNNY     55  38  53 NW6       30.04R
DETROIT CITY   MOSUNNY   63  25  23 NW9       30.03R
DETROIT        MOSUNNY   64  27  24 NW14      30.04R
FLINT          MOSUNNY   57  35  43 NW9       30.05R
GROSSE ILE     SUNNY     64  27  24 NW10      30.02R
HILLSDALE      SUNNY     59  30  33 W6        30.04S
HOWELL         SUNNY     59  27  29 NW8       30.04R

CITY           SKY/WX    TMP DP  RH WIND       PRES   REMARKS
JACKSON        SUNNY     61  25  25 NW12      30.04R
LAMBERTVILLE   SUNNY     65  30  26 W6        30.03S
LANSING        SUNNY     61  29  29 W8        30.05R
LAPEER         FAIR      57  32  37 NW9       30.04R
MASON          SUNNY     60  33  35 W8        30.04S
MONROE         SUNNY     64  33  32 NW8       30.03R
MT. CLEMENS    MOSUNNY   59  30  33 NW9       30.02R
PONTIAC        PTSUNNY   59  31  34 NW8       30.03R
PORT HOPE        N/A     41  33  73 CALM      30.05R
PORT HURON     MOSUNNY   46  34  61 NE9       30.06R
TRI CITIES     SUNNY     56  32  40 NW8       30.05R
MIDLAND        FAIR      57  28  31 NW8       30.04S
TROY           MOSUNNY   61  25  25 NW12      30.05R
SAGINAW HB     SUNNY     54  32  43 NW8       30.04S
$$
MIZ043>046-050>051-056>058-064>065-071>073-077>080-192300-
SOUTHWEST LOWER MICHIGAN

CITY           SKY/WX    TMP DP  RH WIND       PRES   REMARKS
BATTLE CREEK   MOSUNNY   62  29  28 NW10      30.06R
BENTON HARBOR  SUNNY     56  28  34 W5        30.07F
BIG RAPIDS     SUNNY     56  24  29 NW5       30.05R
COLDWATER      SUNNY     63  28  26 NW6       30.06S
FREMONT        FAIR      58  27  30 W7        30.05R
HOLLAND        CLOUDY    54  33  45 W8        30.08R
GRAND RAPIDS   PTSUNNY   60  29  30 W12       30.05S
IONIA          FAIR      60  30  32 NW6       30.04S
KALAMAZOO      PTSUNNY   62  22  21 NW12      30.07R
LUDINGTON      MOSUNNY   53  33  47 NW6       30.07R
MARSHALL       SUNNY     63  28  26 W8        30.05R
MOUNT PLEASANT CLOUDY    56  30  36 NW5       30.04S
MUSKEGON       CLOUDY    56  29  35 NW5       30.07S
SOUTH HAVEN    SUNNY     52  32  46 CALM      30.08S
$$
MIZ016>042-192300-
NORTHERN LOWER MICHIGAN

CITY           SKY/WX    TMP DP  RH WIND       PRES   REMARKS
ALPENA         SUNNY     47  32  56 N9        30.05R
BEAVER ISLAND  SUNNY     42  31  64 SW3       30.09R
BELLAIRE       CLOUDY    44  30  57 N5        30.08S
CADILLAC       SUNNY     52  31  44 NW7       30.05R
CHARLEVOIX     MOSUNNY   41  32  69 W6        30.12S
FRANKFORT      MOSUNNY   49  33  54 NE3       30.08R
GAYLORD        CLOUDY    46  28  49 W8        30.06R
GRAYLING       SUNNY     47  31  54 W8        30.07R
HARBOR SPRINGS CLOUDY    37  32  84 SW6       30.09R WCI  32
HOUGHTON LAKE  SUNNY     50  30  46 NW9       30.06R
MANISTEE       SUNNY     51  32  48 NW5       30.08R
OSCODA         SUNNY     43  30  60 E3        30.04S
PELLSTON       CLOUDY    42  28  57 NW9       30.08R
ROGERS CITY    SUNNY     44  31  59 N7        30.07R
TRAVERSE CITY  CLOUDY    43  31  62 N8        30.07S
$$
MIZ007>008-015-192300-
EASTERN UPPER MICHIGAN

CITY           SKY/WX    TMP DP  RH WIND       PRES   REMARKS
KINROSS        SUNNY     39  29  67 N9        30.08R WCI  33
MACKINAC ISLAN SUNNY     40  31  68 W12       30.07R WCI  34
NEWBERRY       SUNNY     40  30  66 N10       30.07R WCI  34
S. S. MARIE    SUNNY     41  29  62 NW12      30.07R
MUNISING         N/A     36  32  85 NE10      30.09R WCI  28
$$
MIZ004>006-011>014-085-192300-
CENTRAL UPPER MICHIGAN

CITY           SKY/WX    TMP DP  RH WIND       PRES   REMARKS
MANISTIQUE     SUNNY     39  32  75 CALM      30.08R
ESCANABA       CLOUDY    44  29  55 S6        30.09R
MENOMINEE      CLOUDY    47  31  53 SE8       30.07R
SAWYER-GWINN   SUNNY    N/A N/A N/A NE8       30.07R
$$
MIZ001>003-009>011-084-192300-
WESTERN UPPER MICHIGAN

CITY           SKY/WX    TMP DP  RH WIND       PRES   REMARKS
IRON MOUNTAIN  CLOUDY    49  28  44 E3        30.02S
HOUGHTON       CLOUDY    37  28  70 E9        30.06R WCI  30
COPPER HARBOR    N/A     36  31  82 E5        30.08R WCI  32
IRONWOOD       PTSUNNY   56  27  32 SE6       29.99R
$$

ABBREVIATIONS USED IN REMARKS
   TC - TEMPERATURE IN CELSIUS
  WCI - WIND CHILL INDEX
   HX - HEAT INDEX
  VSB - VISIBILITY





USA.gov is the U.S. government's official web portal to all federal, state and local government web resources and services.